RAISE-2

operational
NORAD ID: 49397 Int'l Des: 2021-102 Owner: JAXA Country: J
LEOCIRCULARRETROGRADESSO

About RAISE-2

Description loading...

Live Position

Loading 3D Globe...

Upcoming Passes

Altitude History

Altitude vs Time

uPlot chart will show altitude changes over time

Two-Line Element Set

1 49397U 21102C 26102.53386995 .00003905 00000-0 18027-3 0 9995
2 49397 97.3330 137.3032 0009874 146.1102 214.0766 15.20754479243459
Epoch: Apr 12, 2026 • Age: 5 hours

Current Status

Altitude 526.6 km
Velocity 7.59 km/s
Sub-Earth Point -42.23°S, 42.78°E
Launch Date Nov 9, 2021
Age 4.4 years
Type other

Technical Details

Classification Payload
Mass 110.00 kg
Dry Mass 110.00 kg
Total Mass 110.00 kg
Length 1.00 m
Diameter 0.80 m
Span 1.00 m
Shape Box
Manufacturer JAXA
Bus Type RAPIS
Phase Status In Orbit
Owner/State JAXA/J

Large Constellations

Loading constellations...